Regional Weather Roundup
Issued by NWS

Home | Current Version | Previous Version | Text Only | Print | Product List | Glossary On
Versions: 1 2 3 4 5 6 7 8 9 10 11 12 13 14 15 16 17 18 19 20 21 22 23 24 25 26 27 28 29 30 31 32 33 34 35 36 37 38 39 40 41 42 43 44 45 46 47 48 49 50
591
ASUS46 KSEW 271310
RWRWA

WASHINGTON REGIONAL WEATHER ROUNDUP
NATIONAL WEATHER SERVICE SEATTLE WA
600 AM PDT SAT AUG 27 2016

NOTE:"FAIR" INDICATES FEW OR NO CLOUDS BELOW 12,000 FEET WITH NO
SIGNIFICANT WEATHER AND/OR OBSTRUCTIONS TO VISIBILITY.

WAZ505-507>509-271400-
SEATTLE, TACOMA, EVERETT, AND VICINITY

CITY           SKY/WX    TMP DP  RH WIND       PRES   REMARKS
EVERETT        CLEAR     64  49  57 S10       29.79R
BOEING FIELD   PTCLDY    64  50  60 S9        29.80R
RENTON         CLEAR     65  53  65 S12       29.80R
SEATAC AIRPORT PTCLDY    61  53  75 SW13      29.82R
JBLM-MCCHORD   CLEAR     63  53  71 W10       29.82R
PUYALLUP       FAIR      64  50  59 W7        29.82R
BREMERTON      CLOUDY    57  55  94 S10       29.85R
JBLM-FT LEWIS  CLEAR     62  54  75 SW14G21   29.82R
TACOMA NARROWS MOCLDY    59  55  87 SW7       29.83R
$$

WAZ001-503-506-510-514-515-271400-
NORTH INTERIOR

CITY           SKY/WX    TMP DP  RH WIND       PRES   REMARKS
BELLINGHAM     CLEAR     62  54  74 S8        29.75R
FRIDAY HARBOR  CLEAR     52  49  89 CALM      29.76S
EASTSOUND      CLEAR     57  52  82 CALM      29.74R
PORT ANGELES   CLEAR     57  52  83 W7        29.78S
EDIZ HOOK      FAIR      56  53  89 W15G23    29.77R
PORT TOWNSEND  FAIR      52  50  93 CALM      29.77S
NAS WHIDBEY    PTCLDY    58  49  72 SE3       29.81R
ARLINGTON      CLEAR     55  45  67 CALM      29.79S
BURLINGTON     CLEAR     57  52  82 CALM      29.77R
$$

WAZ020-022-039-040-504-511-512-271400-
SOUTHWEST INTERIOR

CITY           SKY/WX    TMP DP  RH WIND       PRES   REMARKS
SHELTON        CLOUDY    60  55  83 SW20G35   29.81R
OLYMPIA        CLEAR     60  54  80 SW12      29.84R
CHEHALIS       FAIR      59  55  88 S5        29.87R
KELSO          CLOUDY    61  56  83 CALM      29.91S
VANCOUVER      CLEAR     63  52  67 CALM      29.88R
SCAPPOOSE, OR  CLEAR     56  49  77 CALM      29.88R
PORTLAND, OR   PTCLDY    64  51  62 SW3       29.88R
$$

WAZ021-516-517-271400-
WASHINGTON COAST

CITY           SKY/WX    TMP DP  RH WIND       PRES   REMARKS
FORKS          CLOUDY    56  56 100 S3        29.85S FOG
HOQUIAM        CLOUDY    59  59 100 SW15      29.88S FOG
ASTORIA, OR    CLOUDY    58  56  93 SW9       29.92R FOG
$$

WAZ019-023-024-040-518-519-271400-
CASCADE MOUNTAINS AND COLUMBIA GORGE

CITY           SKY/WX    TMP DP  RH WIND       PRES   REMARKS
STAMPEDE PASS  CLEAR     60  34  37 W8G18     29.91S
TROUTDALE, OR  CLEAR     61  52  72 SE3       29.88R
THE DALLES, OR CLEAR     65  47  52 S5        29.79S
$$

WAZ026-027-041>044-520-521-271400-
EAST SLOPES

CITY           SKY/WX    TMP DP  RH WIND       PRES   REMARKS
OMAK           CLOUDY    67  43  41 S6        29.69S
WENATCHEE      PTCLDY    68  45  43 NW3       29.71F
ELLENSBURG     PTCLDY    65  45  48 NW10      29.78S
YAKIMA         CLEAR     55  45  68 CALM      29.77R
$$

WAZ028-034-035-271400-
COLUMBIA BASIN

CITY           SKY/WX    TMP DP  RH WIND       PRES   REMARKS
EPHRATA        PTCLDY    62  48  60 SW7       29.71S
MOSES LAKE     PTCLDY    64  48  56 E3        29.72S
PASCO          MOCLDY    63  47  55 SE5       29.74S
HERMISTON, OR  PTCLDY    57  43  59 CALM      29.77R
$$

WAZ036>038-271400-
NORTHEAST WASHINGTON

CITY           SKY/WX    TMP DP  RH WIND       PRES   REMARKS
SPOKANE GEIGER MOCLDY    65  37  35 S7        29.77S
SPOKANE FELTS  MOCLDY    62  42  47 N3        29.77S
FAIRCHILD AFB  MOCLDY    61  38  43 S12       29.77S
COEURDALENE,ID MOCLDY    61  45  55 CALM      29.77S
DEER PARK      MOCLDY    61  39  44 SE7       29.76F
$$

WAZ029>033-271400-
SOUTHEAST WASHINGTON

CITY           SKY/WX    TMP DP  RH WIND       PRES   REMARKS
PULLMAN        PTCLDY    60  37  42 E3        29.85S
LEWISTON, ID   PTCLDY    62  39  42 SE3       29.80S
WALLA WALLA    MOCLDY    72  37  28 S7        29.79S
PENDLETON, OR  PTCLDY    63  36  36 SE7       29.81S
$$




USA.gov is the U.S. government's official web portal to all federal, state and local government web resources and services.